HK6RM-17 Weather Reports


Display with metric or nautical units.
time (UTC)temp
F
wind
direction
speed
MPH
gust
MPH
rain 1hr
in
rain 24hr
in
rain mn
in
humidity
%
barometer
mb
20260507155233 67 290 6.0 0.0 0.00 0.00 0.00 82 1015.0
20260507154232 68 290 6.0 0.0 0.00 0.00 0.00 82 1016.0
20260507153232 66 290 6.0 0.0 0.00 0.00 0.00 77 1016.0
20260507152231 66 290 6.0 0.0 0.00 0.00 0.00 75 1016.0
20260507151231 66 290 6.0 0.0 0.00 0.00 0.00 73 1016.0
20260507150229 66 290 6.0 0.0 0.00 0.00 0.00 70 1016.0
20260507145229 66 290 6.0 0.0 0.00 0.00 0.00 70 1016.0
20260507144228 66 290 6.0 0.0 0.00 0.00 0.00 70 1016.0
20260507143228 66 290 6.0 0.0 0.00 0.00 0.00 70 1016.0
20260507142226 66 290 6.0 0.0 0.00 0.00 0.00 70 1017.0
20260507141224 66 290 6.0 0.0 0.00 0.00 0.00 69 1017.0
20260507140222 67 0 2.0 0.0 0.00 0.00 0.00 68 1017.0
20260507135222 68 0 2.0 0.0 0.00 0.00 0.00 68 1017.0
20260507134221 68 0 2.0 0.0 0.00 0.00 0.00 68 1017.0
20260507133220 58 299 5.0 4.0 0.00 0.00 0.00 73 1017.0
20260507132219 58 309 2.0 1.0 0.00 0.00 0.00 73 1017.0
20260507131217 59 309 2.0 1.0 0.00 0.00 0.00 73 1017.0
20260507130215 59 306 1.0 1.0 0.00 0.00 0.00 73 1017.0
20260507125215 60 306 1.0 1.0 0.00 0.00 0.00 73 1017.0
20260507124213 53 309 2.0 1.0 0.00 0.00 0.00 82 1017.0
20260507123212 57 90 4.0 0.0 0.00 0.00 0.00 82 1017.0
20260507122211 57 90 4.0 0.0 0.00 0.00 0.00 82 1017.0
20260507121211 58 90 4.0 0.0 0.00 0.00 0.00 82 1017.0
20260507120210 58 90 4.0 0.0 0.00 0.00 0.00 82 1017.0
20260507115210 59 90 4.0 0.0 0.00 0.00 0.00 82 1017.0
20260507114209 50 105 5.0 3.0 0.00 0.00 0.00 76 1017.0
20260507113207 50 105 5.0 3.0 0.00 0.00 0.00 76 1017.0
20260507112207 51 105 5.0 3.0 0.00 0.00 0.00 76 1017.0
20260507111206 51 105 5.0 3.0 0.00 0.00 0.00 75 1017.0
20260507110204 51 105 5.0 3.0 0.00 0.00 0.00 75 1017.0
20260507105204 50 105 5.0 3.0 0.00 0.00 0.00 76 1017.0
20260507104202 51 105 5.0 3.0 0.00 0.00 0.00 75 1017.0
20260507103200 51 105 5.0 3.0 0.00 0.00 0.00 75 1017.0
20260507102158 50 105 5.0 3.0 0.00 0.00 0.00 75 1017.0
20260507101156 51 105 5.0 3.0 0.00 0.00 0.00 75 1017.0
20260507100155 51 105 5.0 3.0 0.00 0.00 0.00 75 1017.0
20260507095155 50 110 5.0 3.0 0.00 0.00 0.00 75 1017.0
20260507094154 51 110 5.0 3.0 0.00 0.00 0.00 75 1017.0
20260507093154 51 110 5.0 3.0 0.00 0.00 0.00 75 1017.0
20260507092153 51 110 5.0 3.0 0.00 0.00 0.00 76 1017.0
20260507091152 50 110 5.0 3.0 0.00 0.00 0.00 75 1017.0
20260507090148 51 110 5.0 3.0 0.00 0.00 0.00 75 1017.0
20260507085147 51 110 5.0 3.0 0.00 0.00 0.00 75 1017.0
20260507084146 50 108 5.0 3.0 0.00 0.00 0.00 75 1017.0
20260507083144 51 108 5.0 3.0 0.00 0.00 0.00 75 1017.0
20260507082142 51 108 5.0 3.0 0.00 0.00 0.00 75 1017.0
20260507081140 50 111 5.0 3.0 0.00 0.00 0.00 76 1017.0
20260507080140 50 107 5.0 3.0 0.00 0.00 0.00 76 1017.0
20260507075139 51 107 5.0 3.0 0.00 0.00 0.00 76 1017.0
20260507074138 51 107 5.0 3.0 0.00 0.00 0.00 76 1017.0
20260507073138 51 107 5.0 3.0 0.00 0.00 0.00 76 1017.0
20260507072137 51 107 5.0 3.0 0.00 0.00 0.00 76 1017.0
20260507071136 51 107 5.0 3.0 0.00 0.00 0.00 76 1017.0
20260507070135 51 107 5.0 3.0 0.00 0.00 0.00 76 1017.0
20260507065134 51 107 5.0 3.0 0.00 0.00 0.00 76 1017.0
20260507064132 52 107 5.0 3.0 0.00 0.00 0.00 76 1018.0
20260507063132 52 107 5.0 3.0 0.00 0.00 0.00 76 1018.0
20260507062131 52 107 5.0 3.0 0.00 0.00 0.00 76 1018.0
20260507061128 52 107 5.0 3.0 0.00 0.00 0.00 76 1018.0
20260507060128 52 107 5.0 3.0 0.00 0.00 0.00 76 1018.0
20260507055126 52 107 5.0 3.0 0.00 0.00 0.00 76 1018.0
20260507054126 52 107 5.0 3.0 0.00 0.00 0.00 76 1018.0
20260507053124 52 107 5.0 3.0 0.00 0.00 0.00 74 1018.0
20260507052122 52 107 5.0 3.0 0.00 0.00 0.00 74 1018.0
20260507051122 52 107 5.0 3.0 0.00 0.00 0.00 74 1018.0
20260507050121 52 107 5.0 3.0 0.00 0.00 0.00 74 1018.0
20260507045121 52 107 5.0 3.0 0.00 0.00 0.00 74 1018.0
20260507044119 53 107 5.0 3.0 0.00 0.00 0.00 74 1018.0
20260507043119 52 111 7.0 4.0 0.00 0.00 0.00 74 1018.0
20260507042117 52 111 7.0 4.0 0.00 0.00 0.00 74 1018.0
20260507041115 52 111 7.0 4.0 0.00 0.00 0.00 74 1018.0
20260507040115 52 111 7.0 4.0 0.00 0.00 0.00 74 1018.0
20260507035114 52 111 7.0 4.0 0.00 0.00 0.00 75 1019.0
20260507034114 53 111 7.0 4.0 0.00 0.00 0.00 75 1019.0
20260507033111 53 111 7.0 4.0 0.00 0.00 0.00 75 1019.0
20260507032110 54 111 7.0 4.0 0.00 0.00 0.00 75 1018.0
20260507031108 55 111 7.0 4.0 0.00 0.00 0.00 75 1018.0
20260507030059 55 111 7.0 4.0 0.00 0.00 0.00 75 1018.0
20260507025058 56 111 7.0 4.0 0.00 0.00 0.00 75 1018.0
20260507024058 57 111 7.0 4.0 0.00 0.00 0.00 75 1018.0
20260507023057 57 111 7.0 4.0 0.00 0.00 0.00 75 1018.0
20260507022057 58 111 7.0 4.0 0.00 0.00 0.00 75 1017.0
20260507021056 52 280 8.0 0.0 0.00 0.00 0.00 70 1017.0
20260507020056 52 280 8.0 0.0 0.00 0.00 0.00 70 1018.0
20260507015055 52 280 8.0 0.0 0.00 0.00 0.00 70 1018.0
20260507014053 53 280 8.0 0.0 0.00 0.00 0.00 70 1017.0
20260507013052 53 280 8.0 0.0 0.00 0.00 0.00 70 1017.0
20260507012051 53 280 8.0 0.0 0.00 0.00 0.00 70 1016.0
20260507011049 53 280 8.0 0.0 0.00 0.00 0.00 70 1017.0
20260507010048 53 280 8.0 0.0 0.00 0.00 0.00 70 1017.0
20260507005048 53 280 8.0 0.0 0.00 0.00 0.00 70 1017.0
20260507004047 54 280 8.0 0.0 0.00 0.00 0.00 70 1016.0
20260507003046 55 280 8.0 0.0 0.00 0.00 0.00 70 1016.0
20260507002045 55 280 8.0 0.0 0.00 0.00 0.00 70 1015.0
20260507001045 56 280 8.0 0.0 0.00 0.00 0.00 70 1015.0
20260507000044 57 280 8.0 0.0 0.00 0.00 0.00 70 1015.0
20260506235044 57 280 8.0 0.0 0.00 0.00 0.00 70 1015.0
20260506234043 58 280 8.0 0.0 0.00 0.00 0.00 70 1015.0
20260506233043 59 280 8.0 0.0 0.00 0.00 0.00 70 1014.0
20260506232042 59 280 8.0 0.0 0.00 0.00 0.00 70 1014.0
20260506231042 60 280 8.0 0.0 0.00 0.00 0.00 70 1014.0
20260506230041 60 280 8.0 0.0 0.00 0.00 0.00 70 1014.0
20260506225036 61 280 8.0 0.0 0.00 0.00 0.00 70 1014.0
20260506224035 62 280 8.0 0.0 0.00 0.00 0.00 70 1013.0
20260506223035 62 280 8.0 0.0 0.00 0.00 0.00 70 1013.0
20260506222033 63 280 8.0 0.0 0.00 0.00 0.00 69 1012.0
20260506221029 63 280 8.0 0.0 0.00 0.00 0.00 69 1012.0
20260506220028 64 280 8.0 0.0 0.00 0.00 0.00 69 1012.0
20260506215026 65 280 8.0 0.0 0.00 0.00 0.00 69 1012.0
20260506214025 66 280 8.0 0.0 0.00 0.00 0.00 69 1012.0
20260506213024 66 280 8.0 0.0 0.00 0.00 0.00 69 1012.0
20260506212023 66 280 8.0 0.0 0.00 0.00 0.00 69 1011.0
20260506211023 66 280 8.0 0.0 0.00 0.00 0.00 69 1011.0
20260506210021 66 280 8.0 0.0 0.00 0.00 0.00 69 1011.0
20260506205021 66 280 8.0 0.0 0.00 0.00 0.00 69 1011.0
20260506204021 67 280 8.0 0.0 0.00 0.00 0.00 69 1011.0
20260506203018 68 280 8.0 0.0 0.00 0.00 0.00 69 1011.0
20260506202018 68 280 8.0 0.0 0.00 0.00 0.00 69 1011.0
20260506201017 69 280 8.0 0.0 0.00 0.00 0.00 69 1011.0
20260506200016 70 280 8.0 0.0 0.00 0.00 0.00 69 1011.0
20260506195016 71 280 8.0 0.0 0.00 0.00 0.00 69 1011.0
20260506194014 71 280 8.0 0.0 0.00 0.00 0.00 69 1012.0
20260506193012 71 280 8.0 0.0 0.00 0.00 0.00 69 1012.0
20260506192010 71 280 8.0 0.0 0.00 0.00 0.00 69 1012.0
20260506191010 71 280 8.0 0.0 0.00 0.00 0.00 69 1012.0
20260506190007 71 320 8.0 0.0 0.00 0.00 0.00 69 1012.0
20260506185006 72 320 8.0 0.0 0.00 0.00 0.00 69 1012.0
20260506184005 72 320 8.0 0.0 0.00 0.00 0.00 69 1012.0
20260506183004 72 320 8.0 0.0 0.00 0.00 0.00 70 1012.0
20260506182002 67 290 8.0 0.0 0.00 0.00 0.00 76 1013.0
20260506181002 67 290 8.0 0.0 0.00 0.00 0.00 76 1013.0
20260506180000 68 290 8.0 0.0 0.00 0.00 0.00 76 1013.0
20260506175000 68 290 8.0 0.0 0.00 0.00 0.00 76 1013.0
20260506173958 68 290 8.0 0.0 0.00 0.00 0.00 76 1013.0
20260506172957 68 290 8.0 0.0 0.00 0.00 0.00 76 1014.0
20260506171956 68 290 8.0 0.0 0.00 0.00 0.00 76 1014.0
20260506170955 68 290 8.0 0.0 0.00 0.00 0.00 76 1014.0
20260506165955 68 300 8.0 0.0 0.00 0.00 0.00 76 1014.0
20260506164953 68 300 8.0 0.0 0.00 0.00 0.00 76 1014.0
20260506163951 68 300 8.0 0.0 0.00 0.00 0.00 76 1015.0
20260506162950 67 300 8.0 0.0 0.00 0.00 0.00 75 1015.0
20260506161950 68 300 8.0 0.0 0.00 0.00 0.00 75 1015.0
20260506160948 68 300 8.0 0.0 0.00 0.00 0.00 74 1015.0
20260506155945 67 290 5.0 0.0 0.00 0.00 0.00 73 1015.0